Meteo Giornale » Osservazioni meteo Francia » Beauvais

ore: 16:30 - Osservazioni Meteo Beauvais
Lat. 49° 28' N Lon. 2° 7' E Alt. 109 metri s.l.m.

molto_nuvoloso

23 °C

Molto Nuvoloso

Temp. 24 Ore

12 °C

23 °C

Ovest

13 Km/h

Dew point 11 °C

Umidità 46 %

Visibilità  10 Km

Il sole sorge alle ore 07:07

Il sole tramonta alle ore 20:35

Data e Ora Cielo e Fenomeni T °C DP °C Um. % Pres. hPa Vis. km Vento km/h
Oggi h: 16:30 molto_nuvoloso Molto Nuvoloso 23 11 46 1021 10 O 13
Oggi h: 16:00 molto_nuvoloso Molto Nuvoloso 21 11 52 1021 10 N 5.5
Oggi h: 15:30 molto_nuvoloso Molto Nuvoloso 21 11 52 1022 10 O/NO 11.1
Oggi h: 15:00 molto_nuvoloso Molto Nuvoloso 21 11 52 1022 10 O/NO 9.3
Oggi h: 14:30 sereno Sereno 21 11 52 1022 10 O/NO 11.1
Oggi h: 14:00 molto_nuvoloso Molto Nuvoloso 20 12 59 1022 10 O/NO 14.8
Oggi h: 13:30 coperto Coperto 22 14 60 1022 10 O 11.1
Oggi h: 13:00 molto_nuvoloso Molto Nuvoloso 21 11 52 1022 10 O 13
Oggi h: 12:30 molto_nuvoloso Molto Nuvoloso 20 12 59 1022 10 O/SO 11.1
Oggi h: 12:00 nuvoloso Nuvoloso 19 14 72 1022 10 O/NO 9.3
Oggi h: 11:30 molto_nuvoloso Molto Nuvoloso 19 13 68 1022 10 O/SO 11.1
Oggi h: 11:00 nuvoloso Nuvoloso 19 13 68 1022 10 O 11.1
Oggi h: 10:30 poco_nuvoloso Poco Nuvoloso 18 13 72 1022 10 O 9.3
Oggi h: 10:00 poco_nuvoloso Poco Nuvoloso 17 14 82 1022 10 O 13
Oggi h: 09:30 sereno Sereno 16 13 82 1022 10 O/SO 13
Oggi h: 09:00 sereno Sereno 15 13 87 1022 10 O 11.1
Oggi h: 08:30 sereno Sereno 14 13 93 1022 10 N 5.5
Oggi h: 08:00 sereno Sereno 13 12 93 1021 10 N 5.5
Oggi h: 07:30 sereno Sereno 13 11 87 1021 10 N 5.5
Oggi h: 07:00 sereno Sereno 13 13 100 1021 10 O 9.3
Oggi h: 06:30 sereno Sereno 14 13 93 1021 10 O/SO 9.3
Oggi h: 06:00 sereno Sereno 13 12 93 1021 10 N 5.5
Oggi h: 05:30 sereno Sereno 13 12 93 1021 10 N 0
Oggi h: 05:00 sereno Sereno 13 12 93 1021 10 N 5.5
Oggi h: 04:30 poco_nuvoloso Poco Nuvoloso 14 13 93 1020 10 SO 7.4
Oggi h: 04:00 molto_nuvoloso Molto Nuvoloso 14 13 93 1021 10 O/SO 7.4
Oggi h: 03:30 molto_nuvoloso Molto Nuvoloso 14 13 93 1021 10 O 7.4
Oggi h: 03:00 nuvoloso Nuvoloso 13 12 93 1020 10 N 3.7
Oggi h: 02:30 sereno Sereno 12 11 93 1020 10 N 1.8
Oggi h: 02:00 sereno Sereno 13 11 87 1020 10 N 0
Oggi h: 01:30 sereno Sereno 14 12 87 1020 10 N 0
Oggi h: 01:00 sereno Sereno 15 12 82 1020 10 N 0
Oggi h: 00:30 sereno Sereno 15 13 87 1020 10 N 5.5
Oggi h: 00:00 sereno Sereno 16 13 82 1020 10 N 5.5
Ieri h: 23:30 sereno Sereno 16 13 82 1020 10 O 7.4
Ieri h: 23:00 sereno Sereno 16 13 82 1020 10 N 5.5
Ieri h: 22:30 sereno Sereno 16 13 82 1020 10 N 0
Ieri h: 22:00 sereno Sereno 17 14 82 1020 10 N 3.7
Ieri h: 21:30 sereno Sereno 18 13 72 1019 10 O 7.4
Ieri h: 21:00 sereno Sereno 18 13 72 1019 10 O 11.1
Ieri h: 20:30 sereno Sereno 19 13 68 1019 10 O 11.1
Ieri h: 20:00 poco_nuvoloso Poco Nuvoloso 20 13 64 1018 10 O 20.3
Ieri h: 19:30 sereno Sereno 21 12 56 1018 10 O 18.5
Ieri h: 19:00 poco_nuvoloso Poco Nuvoloso 21 12 56 1018 10 O 20.3
Ieri h: 18:30 poco_nuvoloso Poco Nuvoloso 22 11 49 1017 10 O 27.8
Ieri h: 18:00 sereno Sereno 23 11 46 1017 10 O/NO 29.6